sat.trackr.live / text

‹ back to catalog

STARLINK-4619

NORAD 54191 · 2022-141AL

PAYLOAD ACTIVE UNKNOWN

§ Identity

Operator
Country
US
Launch date
2022-10-28
Launch site
AFWTR
Launch vehicle
Mass (kg)
RCS (m²)

Purposes: comms

External: N2YO · Heavens-Above · Gunter

§ Orbital elements

Epoch: 2026-09-20T22:00:03.000096Z

Period
93.85 min
Inclination
53.1608°
Eccentricity
0.0001318
Mean motion
15.34395327 rev/d
Perigee alt
461.8 km
Apogee alt
463.6 km
Semi-major
6,840.9 km
B*
-7.1857e-4
RAAN
185.6035°
Arg perigee
88.1875°
Mean anomaly
274.8127°
Rev number
583

§ Raw data

STARLINK-46191 54191U 22141AL  26263.91670139 -.00024572  00000+0 -71857-3 0  99972 54191  53.1608 185.6035 0001318  88.1875 274.8127 15.34395327  5832

JSON: /api/v1/satellites/54191 · /tle

For live sub-satellite position, see the globe view (requires WebGL).

§ Visibility from observer

Set your observer location to see the next 7 days of passes ≥ 10°. The values pass through the URL so the page stays shareable.

No JS? Fill the form by hand. The geolocation button needs JavaScript.